Time,TemperatureF,DewpointF,PressureIn,WindDirection,WindDirectionDegrees,WindSpeedMPH,WindSpeedGustMPH,Humidity,HourlyPrecipIn,Conditions,Clouds,dailyrainin,SoftwareType,DateUTC
2013-04-23 00:01:00,57.0,35.9,30.18,North,0,0.0,0.0,45,0.00,CLR,FEW,0.00,WeatherDisplay:10.37,2013-04-23 04:01:00,
2013-04-23 00:02:00,57.0,35.9,30.18,North,0,0.0,0.0,45,0.00,CLR,FEW,0.00,WeatherDisplay:10.37,2013-04-23 04:02:00,
2013-04-23 00:03:00,56.8,35.7,30.18,North,0,0.0,0.0,45,0.00,CLR,FEW,0.00,WeatherDisplay:10.37,2013-04-23 04:03:00,
2013-04-23 00:05:00,56.8,35.7,30.18,North,0,0.0,0.0,45,0.00,CLR,FEW,0.00,WeatherDisplay:10.37,2013-04-23 04:05:00,
2013-04-23 00:11:00,56.8,35.7,30.18,North,0,0.0,0.0,45,0.00,CLR,FEW,0.00,WeatherDisplay:10.37,2013-04-23 04:11:00,
2013-04-23 00:16:00,56.8,35.7,30.15,North,0,0.0,0.0,45,0.00,CLR,FEW,0.00,WeatherDisplay:10.37,2013-04-23 04:16:00,
2013-04-23 00:21:00,56.7,36.1,30.15,North,0,0.0,0.0,46,0.00,CLR,FEW,0.00,WeatherDisplay:10.37,2013-04-23 04:21:00,
2013-04-23 00:26:00,56.7,36.1,30.15,North,0,0.0,0.0,46,0.00,CLR,FEW,0.00,WeatherDisplay:10.37,2013-04-23 04:26:00,
2013-04-23 00:31:00,56.5,35.9,30.15,North,0,0.0,0.0,46,0.00,CLR,FEW,0.00,WeatherDisplay:10.37,2013-04-23 04:31:00,
2013-04-23 00:36:00,56.5,35.9,30.15,North,0,0.0,0.0,46,0.00,CLR,FEW,0.00,WeatherDisplay:10.37,2013-04-23 04:36:00,
2013-04-23 00:41:00,56.5,36.5,30.15,North,0,0.0,0.0,47,0.00,CLR,FEW,0.00,WeatherDisplay:10.37,2013-04-23 04:41:00,
2013-04-23 00:46:00,56.3,36.3,30.15,North,0,0.0,0.0,47,0.00,CLR,FEW,0.00,WeatherDisplay:10.37,2013-04-23 04:46:00,
2013-04-23 00:51:00,56.3,36.3,30.15,North,0,0.0,0.0,47,0.00,CLR,FEW,0.00,WeatherDisplay:10.37,2013-04-23 04:51:00,
2013-04-23 00:56:00,56.1,36.7,30.15,North,0,0.0,0.0,48,0.00,CLR,FEW,0.00,WeatherDisplay:10.37,2013-04-23 04:56:00,
2013-04-23 01:01:00,56.1,36.7,30.15,North,0,0.0,0.0,48,0.00,CLR,FEW,0.00,WeatherDisplay:10.37,2013-04-23 05:01:00,
2013-04-23 01:06:00,55.9,36.5,30.15,North,0,0.0,0.0,48,0.00,CLR,FEW,0.00,WeatherDisplay:10.37,2013-04-23 05:06:00,
2013-04-23 01:11:00,55.9,37.0,30.15,North,0,0.0,0.0,49,0.00,CLR,FEW,0.00,WeatherDisplay:10.37,2013-04-23 05:11:00,
2013-04-23 01:16:00,55.9,37.0,30.15,North,0,0.0,0.0,49,0.00,CLR,FEW,0.00,WeatherDisplay:10.37,2013-04-23 05:16:00,
2013-04-23 01:21:00,55.6,36.7,30.15,North,0,0.0,0.0,49,0.00,CLR,FEW,0.00,WeatherDisplay:10.37,2013-04-23 05:21:00,
2013-04-23 01:26:00,55.6,37.2,30.15,North,0,0.0,0.0,50,0.00,CLR,FEW,0.00,WeatherDisplay:10.37,2013-04-23 05:26:00,
2013-04-23 01:31:00,55.4,37.1,30.15,North,0,0.0,0.0,50,0.00,CLR,FEW,0.00,WeatherDisplay:10.37,2013-04-23 05:31:00,
2013-04-23 01:36:00,55.4,37.6,30.15,North,0,0.0,0.0,51,0.00,CLR,FEW,0.00,WeatherDisplay:10.37,2013-04-23 05:36:00,
2013-04-23 01:41:00,55.4,37.6,30.15,North,0,0.0,0.0,51,0.00,CLR,FEW,0.00,WeatherDisplay:10.37,2013-04-23 05:41:00,
2013-04-23 01:46:00,55.4,37.6,30.15,North,0,0.0,0.0,51,0.00,CLR,FEW,0.00,WeatherDisplay:10.37,2013-04-23 05:46:00,
2013-04-23 01:51:00,55.4,37.6,30.15,North,0,0.0,0.0,51,0.00,CLR,FEW,0.00,WeatherDisplay:10.37,2013-04-23 05:51:00,
2013-04-23 01:56:00,55.4,38.1,30.15,North,0,0.0,0.0,52,0.00,CLR,FEW,0.00,WeatherDisplay:10.37,2013-04-23 05:56:00,
2013-04-23 02:01:00,55.2,37.9,30.15,North,0,0.0,0.0,52,0.00,CLR,FEW,0.00,WeatherDisplay:10.37,2013-04-23 06:01:00,
2013-04-23 02:06:00,55.0,38.2,30.15,North,0,0.0,0.0,53,0.00,CLR,FEW,0.00,WeatherDisplay:10.37,2013-04-23 06:06:00,
2013-04-23 02:11:00,54.9,38.0,30.15,North,0,0.0,0.0,53,0.00,CLR,FEW,0.00,WeatherDisplay:10.37,2013-04-23 06:11:00,
2013-04-23 02:16:00,54.7,38.4,30.15,North,0,0.0,0.0,54,0.00,CLR,FEW,0.00,WeatherDisplay:10.37,2013-04-23 06:16:00,
2013-04-23 02:21:00,54.7,38.4,30.15,North,0,0.0,0.0,54,0.00,CLR,FEW,0.00,WeatherDisplay:10.37,2013-04-23 06:21:00,
2013-04-23 02:26:00,54.7,38.8,30.15,North,0,0.0,0.0,55,0.00,CLR,FEW,0.00,WeatherDisplay:10.37,2013-04-23 06:26:00,
2013-04-23 02:31:00,54.5,38.7,30.12,North,0,0.0,0.0,55,0.00,CLR,FEW,0.00,WeatherDisplay:10.37,2013-04-23 06:31:00,
2013-04-23 02:36:00,54.5,38.7,30.12,North,0,0.0,0.0,55,0.00,CLR,FEW,0.00,WeatherDisplay:10.37,2013-04-23 06:36:00,
2013-04-23 02:41:00,54.5,39.1,30.12,North,0,0.0,0.0,56,0.00,CLR,FEW,0.00,WeatherDisplay:10.37,2013-04-23 06:41:00,
2013-04-23 02:46:00,54.5,39.6,30.12,North,0,0.0,0.0,57,0.00,CLR,FEW,0.00,WeatherDisplay:10.37,2013-04-23 06:46:00,
2013-04-23 02:51:00,54.3,39.4,30.12,North,0,0.0,0.0,57,0.00,CLR,FEW,0.00,WeatherDisplay:10.37,2013-04-23 06:51:00,
2013-04-23 02:56:00,54.3,39.4,30.12,North,0,0.0,0.0,57,0.00,CLR,FEW,0.00,WeatherDisplay:10.37,2013-04-23 06:56:00,
2013-04-23 03:02:00,54.3,39.8,30.12,North,0,0.0,0.0,58,0.00,CLR,FEW,0.00,WeatherDisplay:10.37,2013-04-23 07:02:00,
2013-04-23 03:07:00,54.1,39.7,30.12,North,0,0.0,0.0,58,0.00,CLR,FEW,0.00,WeatherDisplay:10.37,2013-04-23 07:07:00,
2013-04-23 03:12:00,54.1,39.7,30.12,North,0,0.0,0.0,58,0.00,CLR,FEW,0.00,WeatherDisplay:10.37,2013-04-23 07:12:00,
2013-04-23 03:17:00,54.0,39.9,30.12,North,0,0.0,0.0,59,0.00,CLR,FEW,0.00,WeatherDisplay:10.37,2013-04-23 07:17:00,
2013-04-23 03:22:00,54.0,40.4,30.12,North,0,0.0,0.0,60,0.00,CLR,FEW,0.00,WeatherDisplay:10.37,2013-04-23 07:22:00,
2013-04-23 03:27:00,53.8,40.2,30.12,North,0,0.0,0.0,60,0.00,CLR,FEW,0.00,WeatherDisplay:10.37,2013-04-23 07:27:00,
2013-04-23 03:32:00,53.8,40.6,30.12,North,0,0.0,0.0,61,0.00,CLR,FEW,0.00,WeatherDisplay:10.37,2013-04-23 07:32:00,
2013-04-23 03:37:00,53.6,40.9,30.12,North,0,0.0,0.0,62,0.00,CLR,FEW,0.00,WeatherDisplay:10.37,2013-04-23 07:37:00,
2013-04-23 03:42:00,53.6,41.7,30.12,North,0,0.0,0.0,64,0.00,CLR,FEW,0.00,WeatherDisplay:10.37,2013-04-23 07:42:00,
2013-04-23 03:47:00,53.4,42.3,30.12,North,0,0.0,0.0,66,0.00,CLR,FEW,0.00,WeatherDisplay:10.37,2013-04-23 07:47:00,
2013-04-23 03:52:00,53.2,42.2,30.12,North,0,0.0,0.0,66,0.00,CLR,FEW,0.00,WeatherDisplay:10.37,2013-04-23 07:52:00,
2013-04-23 03:57:00,53.2,43.3,30.12,North,0,0.0,0.0,69,0.00,CLR,FEW,0.00,WeatherDisplay:10.37,2013-04-23 07:57:00,
2013-04-23 04:02:00,53.2,43.7,30.12,North,0,0.0,0.0,70,0.00,CLR,FEW,0.00,WeatherDisplay:10.37,2013-04-23 08:02:00,
2013-04-23 04:07:00,53.1,44.3,30.12,North,0,0.0,0.0,72,0.00,CLR,FEW,0.00,WeatherDisplay:10.37,2013-04-23 08:07:00,
2013-04-23 04:12:00,52.9,44.8,30.12,North,0,0.0,0.0,74,0.00,CLR,FEW,0.00,WeatherDisplay:10.37,2013-04-23 08:12:00,
2013-04-23 04:17:00,52.9,44.8,30.12,North,0,0.0,0.0,74,0.00,CLR,FEW,0.00,WeatherDisplay:10.37,2013-04-23 08:17:00,
2013-04-23 04:22:00,52.7,45.0,30.12,North,0,0.0,0.0,75,0.00,CLR,FEW,0.00,WeatherDisplay:10.37,2013-04-23 08:22:00,
2013-04-23 04:27:00,52.7,45.0,30.12,North,0,0.0,0.0,75,0.00,CLR,FEW,0.00,WeatherDisplay:10.37,2013-04-23 08:27:00,
2013-04-23 04:32:00,52.5,45.5,30.12,North,0,0.0,0.0,77,0.00,CLR,FEW,0.00,WeatherDisplay:10.37,2013-04-23 08:32:00,
2013-04-23 04:37:00,52.5,46.2,30.12,North,0,0.0,0.0,79,0.00,CLR,FEW,0.00,WeatherDisplay:10.37,2013-04-23 08:37:00,
2013-04-23 04:42:00,52.3,46.7,30.12,North,0,0.0,0.0,81,0.00,CLR,FEW,0.00,WeatherDisplay:10.37,2013-04-23 08:42:00,
2013-04-23 04:47:00,52.3,46.7,30.12,North,0,0.0,0.0,81,0.00,CLR,FEW,0.00,WeatherDisplay:10.37,2013-04-23 08:47:00,
2013-04-23 04:52:00,52.3,47.3,30.12,North,0,0.0,0.0,83,0.00,CLR,FEW,0.00,WeatherDisplay:10.37,2013-04-23 08:52:00,
2013-04-23 04:57:00,52.2,47.2,30.12,North,0,0.0,0.0,83,0.00,CLR,FEW,0.00,WeatherDisplay:10.37,2013-04-23 08:57:00,
2013-04-23 05:02:00,52.2,47.5,30.12,North,0,0.0,0.0,84,0.00,CLR,FEW,0.00,WeatherDisplay:10.37,2013-04-23 09:02:00,
2013-04-23 05:07:00,52.0,47.6,30.12,North,0,0.0,0.0,85,0.00,CLR,FEW,0.00,WeatherDisplay:10.37,2013-04-23 09:07:00,
2013-04-23 05:12:00,52.0,47.6,30.12,North,0,0.0,0.0,85,0.00,CLR,FEW,0.00,WeatherDisplay:10.37,2013-04-23 09:12:00,
2013-04-23 05:17:00,52.0,47.9,30.12,North,0,0.0,0.0,86,0.00,CLR,FEW,0.00,WeatherDisplay:10.37,2013-04-23 09:17:00,
2013-04-23 05:22:00,51.8,48.1,30.12,North,0,0.0,0.0,87,0.00,CLR,FEW,0.00,WeatherDisplay:10.37,2013-04-23 09:22:00,
2013-04-23 05:27:00,51.8,48.4,30.12,North,0,0.0,0.0,88,0.00,CLR,FEW,0.00,WeatherDisplay:10.37,2013-04-23 09:27:00,
2013-04-23 05:32:00,51.8,48.7,30.12,North,0,0.0,0.0,89,0.00,CLR,FEW,0.00,WeatherDisplay:10.37,2013-04-23 09:32:00,
2013-04-23 05:37:00,51.8,48.7,30.12,North,0,0.0,0.0,89,0.00,CLR,FEW,0.00,WeatherDisplay:10.37,2013-04-23 09:37:00,
2013-04-23 05:43:00,51.8,48.7,30.12,North,0,0.0,0.0,89,0.00,CLR,FEW,0.00,WeatherDisplay:10.37,2013-04-23 09:43:00,
2013-04-23 05:48:00,51.8,48.7,30.12,North,0,0.0,0.0,89,0.00,CLR,FEW,0.00,WeatherDisplay:10.37,2013-04-23 09:48:00,
2013-04-23 05:53:00,51.6,48.2,30.12,North,0,0.0,0.0,88,0.00,CLR,FEW,0.00,WeatherDisplay:10.37,2013-04-23 09:53:00,
2013-04-23 05:58:00,51.6,47.9,30.12,North,0,0.0,0.0,87,0.00,CLR,FEW,0.00,WeatherDisplay:10.37,2013-04-23 09:58:00,
2013-04-23 06:03:00,51.6,47.6,30.12,North,0,0.0,0.0,86,0.00,CLR,FEW,0.00,WeatherDisplay:10.37,2013-04-23 10:03:00,
2013-04-23 06:08:00,51.6,47.6,30.12,North,0,0.0,0.0,86,0.00,CLR,FEW,0.00,WeatherDisplay:10.37,2013-04-23 10:08:00,
2013-04-23 06:13:00,51.6,47.6,30.12,North,0,0.0,0.0,86,0.00,CLR,FEW,0.00,WeatherDisplay:10.37,2013-04-23 10:13:00,
2013-04-23 06:18:00,51.6,47.3,30.12,North,0,0.0,0.0,85,0.00,CLR,FEW,0.00,WeatherDisplay:10.37,2013-04-23 10:18:00,
2013-04-23 06:23:00,51.6,46.6,30.12,North,0,0.0,0.0,83,0.00,CLR,FEW,0.00,WeatherDisplay:10.37,2013-04-23 10:23:00,
2013-04-23 06:28:00,51.6,46.3,30.12,North,0,0.0,0.0,82,0.00,CLR,FEW,0.00,WeatherDisplay:10.37,2013-04-23 10:28:00,
2013-04-23 06:33:00,51.6,46.0,30.15,North,0,0.0,0.0,81,0.00,CLR,FEW,0.00,WeatherDisplay:10.37,2013-04-23 10:33:00,
2013-04-23 06:38:00,51.8,45.8,30.15,North,0,0.0,0.0,80,0.00,CLR,FEW,0.00,WeatherDisplay:10.37,2013-04-23 10:38:00,
2013-04-23 06:43:00,51.8,45.5,30.15,North,0,0.0,0.0,79,0.00,CLR,FEW,0.00,WeatherDisplay:10.37,2013-04-23 10:43:00,
2013-04-23 06:48:00,51.8,45.2,30.15,North,0,0.0,0.0,78,0.00,CLR,FEW,0.00,WeatherDisplay:10.37,2013-04-23 10:48:00,
2013-04-23 06:53:00,51.8,44.8,30.15,North,0,0.0,0.0,77,0.00,CLR,FEW,0.00,WeatherDisplay:10.37,2013-04-23 10:53:00,
2013-04-23 06:58:00,51.8,44.5,30.15,North,0,0.0,0.0,76,0.00,CLR,FEW,0.00,WeatherDisplay:10.37,2013-04-23 10:58:00,
2013-04-23 07:03:00,51.8,44.1,30.15,North,0,0.0,0.0,75,0.00,CLR,FEW,0.00,WeatherDisplay:10.37,2013-04-23 11:03:00,
2013-04-23 07:08:00,51.8,44.1,30.15,North,0,0.0,0.0,75,0.00,CLR,FEW,0.00,WeatherDisplay:10.37,2013-04-23 11:08:00,
2013-04-23 07:13:00,52.0,43.9,30.15,North,0,0.0,0.0,74,0.00,CLR,FEW,0.00,WeatherDisplay:10.37,2013-04-23 11:13:00,
2013-04-23 07:18:00,52.0,43.9,30.15,North,0,0.0,0.0,74,0.00,CLR,FEW,0.00,WeatherDisplay:10.37,2013-04-23 11:18:00,
2013-04-23 07:23:00,52.0,43.6,30.15,North,0,0.0,0.0,73,0.00,CLR,FEW,0.00,WeatherDisplay:10.37,2013-04-23 11:23:00,
2013-04-23 07:28:00,52.2,43.8,30.15,North,0,0.0,0.0,73,0.00,CLR,FEW,0.00,WeatherDisplay:10.37,2013-04-23 11:28:00,
2013-04-23 07:33:00,52.3,43.6,30.15,North,0,0.0,0.0,72,0.00,CLR,FEW,0.00,WeatherDisplay:10.37,2013-04-23 11:33:00,
2013-04-23 07:38:00,52.3,43.2,30.15,North,0,0.0,0.0,71,0.00,CLR,FEW,0.00,WeatherDisplay:10.37,2013-04-23 11:38:00,
2013-04-23 07:43:00,52.3,43.2,30.15,North,0,0.0,0.0,71,0.00,CLR,FEW,0.00,WeatherDisplay:10.37,2013-04-23 11:43:00,
2013-04-23 07:48:00,52.3,42.8,30.18,North,0,0.0,0.0,70,0.00,CLR,FEW,0.00,WeatherDisplay:10.37,2013-04-23 11:48:00,
2013-04-23 07:53:00,52.5,43.0,30.18,North,0,0.0,0.0,70,0.00,CLR,FEW,0.00,WeatherDisplay:10.37,2013-04-23 11:53:00,
2013-04-23 07:58:00,52.5,43.4,30.18,North,0,0.0,0.0,71,0.00,CLR,FEW,0.00,WeatherDisplay:10.37,2013-04-23 11:58:00,
2013-04-23 08:03:00,52.7,43.6,30.18,North,0,0.0,0.0,71,0.00,CLR,FEW,0.00,WeatherDisplay:10.37,2013-04-23 12:03:00,
2013-04-23 08:08:00,52.7,43.6,30.18,North,0,0.0,0.0,71,0.00,CLR,FEW,0.00,WeatherDisplay:10.37,2013-04-23 12:08:00,
2013-04-23 08:13:00,52.5,43.0,30.18,North,0,0.0,0.0,70,0.00,CLR,FEW,0.00,WeatherDisplay:10.37,2013-04-23 12:13:00,
2013-04-23 08:18:00,52.7,43.6,30.18,North,0,0.0,0.0,71,0.00,CLR,FEW,0.00,WeatherDisplay:10.37,2013-04-23 12:18:00,
2013-04-23 08:23:00,52.7,43.9,30.18,North,0,0.0,0.0,72,0.00,CLR,FEW,0.00,WeatherDisplay:10.37,2013-04-23 12:23:00,
2013-04-23 08:28:00,52.5,44.1,30.18,North,0,0.0,0.0,73,0.00,CLR,FEW,0.00,WeatherDisplay:10.37,2013-04-23 12:28:00,
2013-04-23 08:33:00,52.5,44.5,30.18,North,0,0.0,0.0,74,0.00,CLR,FEW,0.00,WeatherDisplay:10.37,2013-04-23 12:33:00,
2013-04-23 08:38:00,52.5,44.5,30.18,North,0,0.0,0.0,74,0.00,CLR,FEW,0.00,WeatherDisplay:10.37,2013-04-23 12:38:00,
2013-04-23 08:43:00,52.7,44.6,30.18,North,0,0.0,0.0,74,0.00,CLR,FEW,0.00,WeatherDisplay:10.37,2013-04-23 12:43:00,
2013-04-23 08:48:00,52.7,44.3,30.18,North,0,0.0,0.0,73,0.00,CLR,FEW,0.00,WeatherDisplay:10.37,2013-04-23 12:48:00,
2013-04-23 08:53:00,53.1,44.6,30.18,North,0,0.0,0.0,73,0.00,CLR,FEW,0.00,WeatherDisplay:10.37,2013-04-23 12:53:00,
2013-04-23 08:58:00,53.1,44.3,30.18,North,0,0.0,0.0,72,0.00,CLR,FEW,0.00,WeatherDisplay:10.37,2013-04-23 12:58:00,
2013-04-23 09:03:00,53.1,43.9,30.18,North,0,0.0,0.0,71,0.00,CLR,FEW,0.00,WeatherDisplay:10.37,2013-04-23 13:03:00,
2013-04-23 09:08:00,53.2,44.1,30.18,North,0,0.0,0.0,71,0.00,CLR,FEW,0.00,WeatherDisplay:10.37,2013-04-23 13:08:00,
2013-04-23 09:13:00,53.2,43.7,30.18,North,0,0.0,0.0,70,0.00,CLR,FEW,0.00,WeatherDisplay:10.37,2013-04-23 13:13:00,
2013-04-23 09:18:00,53.4,43.5,30.18,North,0,0.0,0.0,69,0.00,CLR,FEW,0.00,WeatherDisplay:10.37,2013-04-23 13:18:00,
2013-04-23 09:23:00,53.6,43.3,30.18,North,0,0.0,0.0,68,0.00,CLR,FEW,0.00,WeatherDisplay:10.37,2013-04-23 13:23:00,
2013-04-23 09:28:00,53.6,42.9,30.18,North,0,0.0,0.0,67,0.00,CLR,FEW,0.00,WeatherDisplay:10.37,2013-04-23 13:28:00,
2013-04-23 09:33:00,53.8,43.5,30.18,North,0,0.0,0.0,68,0.00,CLR,FEW,0.00,WeatherDisplay:10.37,2013-04-23 13:33:00,
2013-04-23 09:38:00,54.1,43.4,30.18,North,0,0.0,0.0,67,0.00,CLR,FEW,0.00,WeatherDisplay:10.37,2013-04-23 13:38:00,
2013-04-23 09:43:00,54.5,43.0,30.18,North,0,0.0,0.0,65,0.00,CLR,FEW,0.00,WeatherDisplay:10.37,2013-04-23 13:43:00,
2013-04-23 09:49:00,54.7,42.3,30.18,North,0,0.0,0.0,63,0.00,CLR,FEW,0.00,WeatherDisplay:10.37,2013-04-23 13:49:00,
2013-04-23 09:54:00,55.0,42.7,30.18,North,0,0.0,0.0,63,0.00,CLR,FEW,0.00,WeatherDisplay:10.37,2013-04-23 13:54:00,
2013-04-23 09:59:00,55.4,42.6,30.18,North,0,0.0,0.0,62,0.00,CLR,FEW,0.00,WeatherDisplay:10.37,2013-04-23 13:59:00,
2013-04-23 10:04:00,55.8,42.1,30.18,North,0,0.0,0.0,60,0.00,CLR,FEW,0.00,WeatherDisplay:10.37,2013-04-23 14:04:00,
2013-04-23 10:09:00,56.1,42.4,30.18,North,0,0.0,0.0,60,0.00,CLR,FEW,0.00,WeatherDisplay:10.37,2013-04-23 14:09:00,
2013-04-23 10:14:00,56.7,42.0,30.18,North,0,0.0,0.0,58,0.00,CLR,FEW,0.00,WeatherDisplay:10.37,2013-04-23 14:14:00,
2013-04-23 10:19:00,56.5,40.0,30.18,North,0,0.0,0.0,54,0.00,CLR,FEW,0.00,WeatherDisplay:10.37,2013-04-23 14:19:00,
2013-04-23 10:24:00,56.7,41.1,30.18,North,0,0.0,0.0,56,0.00,CLR,FEW,0.00,WeatherDisplay:10.37,2013-04-23 14:24:00,
2013-04-23 10:29:00,56.8,40.4,30.18,North,0,0.0,0.0,54,0.00,CLR,FEW,0.00,WeatherDisplay:10.37,2013-04-23 14:29:00,
2013-04-23 10:34:00,57.0,40.5,30.18,North,0,0.0,0.0,54,0.00,CLR,FEW,0.00,WeatherDisplay:10.37,2013-04-23 14:34:00,
2013-04-23 10:39:00,56.7,39.7,30.18,North,0,0.0,0.0,53,0.00,CLR,FEW,0.00,WeatherDisplay:10.37,2013-04-23 14:39:00,
2013-04-23 10:44:00,56.8,40.8,30.18,North,0,0.0,0.0,55,0.00,CLR,FEW,0.00,WeatherDisplay:10.37,2013-04-23 14:44:00,
2013-04-23 10:49:00,57.4,41.3,30.18,North,0,0.0,0.0,55,0.00,CLR,FEW,0.00,WeatherDisplay:10.37,2013-04-23 14:49:00,
2013-04-23 10:54:00,57.4,39.9,30.18,North,0,0.0,0.0,52,0.00,CLR,FEW,0.00,WeatherDisplay:10.37,2013-04-23 14:54:00,
2013-04-23 10:59:00,57.2,39.2,30.21,North,0,0.0,0.0,51,0.00,CLR,FEW,0.00,WeatherDisplay:10.37,2013-04-23 14:59:00,
2013-04-23 11:04:00,57.0,40.0,30.21,North,0,0.0,0.0,53,0.00,CLR,FEW,0.00,WeatherDisplay:10.37,2013-04-23 15:04:00,
2013-04-23 11:09:00,57.4,40.4,30.21,North,0,0.0,0.0,53,0.00,CLR,FEW,0.00,WeatherDisplay:10.37,2013-04-23 15:09:00,
2013-04-23 11:14:00,57.9,39.9,30.21,North,0,0.0,0.0,51,0.00,CLR,FEW,0.00,WeatherDisplay:10.37,2013-04-23 15:14:00,
2013-04-23 11:19:00,58.5,39.9,30.21,North,0,0.0,0.0,50,0.00,CLR,FEW,0.00,WeatherDisplay:10.37,2013-04-23 15:19:00,
2013-04-23 11:24:00,58.8,39.7,30.21,North,0,0.0,0.0,49,0.00,CLR,FEW,0.00,WeatherDisplay:10.37,2013-04-23 15:24:00,
2013-04-23 11:29:00,59.2,38.4,30.21,North,0,0.0,0.0,46,0.00,CLR,FEW,0.00,WeatherDisplay:10.37,2013-04-23 15:29:00,
2013-04-23 11:34:00,59.2,38.9,30.21,North,0,0.0,0.0,47,0.00,CLR,FEW,0.00,WeatherDisplay:10.37,2013-04-23 15:34:00,
2013-04-23 11:39:00,59.7,39.4,30.21,North,0,0.0,0.0,47,0.00,CLR,FEW,0.00,WeatherDisplay:10.37,2013-04-23 15:39:00,
2013-04-23 11:44:00,60.1,38.7,30.21,North,0,0.0,0.0,45,0.00,CLR,FEW,0.00,WeatherDisplay:10.37,2013-04-23 15:44:00,
2013-04-23 11:49:00,60.6,39.7,30.18,North,0,0.0,0.0,46,0.00,CLR,FEW,0.00,WeatherDisplay:10.37,2013-04-23 15:49:00,
2013-04-23 11:54:00,60.8,38.7,30.18,North,0,0.0,0.0,44,0.00,CLR,FEW,0.00,WeatherDisplay:10.37,2013-04-23 15:54:00,
2013-04-23 11:59:00,60.6,39.1,30.18,North,0,0.0,0.0,45,0.00,CLR,FEW,0.00,WeatherDisplay:10.37,2013-04-23 15:59:00,
2013-04-23 12:04:00,61.0,38.9,30.18,North,0,0.0,0.0,44,0.00,CLR,FEW,0.00,WeatherDisplay:10.37,2013-04-23 16:04:00,
2013-04-23 12:09:00,60.8,38.1,30.18,North,0,0.0,0.0,43,0.00,CLR,FEW,0.00,WeatherDisplay:10.37,2013-04-23 16:09:00,
2013-04-23 12:14:00,61.0,38.9,30.18,North,0,0.0,0.0,44,0.00,CLR,FEW,0.00,WeatherDisplay:10.37,2013-04-23 16:14:00,
2013-04-23 12:19:00,61.5,38.8,30.18,North,0,0.0,0.0,43,0.00,CLR,FEW,0.00,WeatherDisplay:10.37,2013-04-23 16:19:00,
2013-04-23 12:24:00,61.5,38.8,30.18,North,0,0.0,0.0,43,0.00,CLR,FEW,0.00,WeatherDisplay:10.37,2013-04-23 16:24:00,
2013-04-23 12:29:00,61.7,38.4,30.18,North,0,0.0,0.0,42,0.00,CLR,FEW,0.00,WeatherDisplay:10.37,2013-04-23 16:29:00,
2013-04-23 12:34:00,61.9,37.9,30.18,North,0,0.0,0.0,41,0.00,CLR,FEW,0.00,WeatherDisplay:10.37,2013-04-23 16:34:00,
2013-04-23 12:39:00,62.1,39.9,30.18,North,0,0.0,0.0,44,0.00,CLR,FEW,0.00,WeatherDisplay:10.37,2013-04-23 16:39:00,
2013-04-23 12:44:00,63.0,39.5,30.18,North,0,0.0,0.0,42,0.00,CLR,FEW,0.00,WeatherDisplay:10.37,2013-04-23 16:44:00,
2013-04-23 12:49:00,63.3,37.9,30.18,North,0,0.0,0.0,39,0.00,CLR,FEW,0.00,WeatherDisplay:10.37,2013-04-23 16:49:00,
2013-04-23 12:54:00,63.5,38.1,30.18,North,0,0.0,0.0,39,0.00,CLR,FEW,0.00,WeatherDisplay:10.37,2013-04-23 16:54:00,
2013-04-23 12:59:00,63.1,37.8,30.18,North,0,0.0,0.0,39,0.00,CLR,FEW,0.00,WeatherDisplay:10.37,2013-04-23 16:59:00,
2013-04-23 13:04:00,63.7,38.2,30.18,North,0,0.0,0.0,39,0.00,CLR,FEW,0.00,WeatherDisplay:10.37,2013-04-23 17:04:00,
2013-04-23 13:09:00,64.0,39.2,30.18,North,0,0.0,0.0,40,0.00,CLR,FEW,0.00,WeatherDisplay:10.37,2013-04-23 17:09:00,
2013-04-23 13:14:00,64.8,37.9,30.18,North,0,0.0,0.0,37,0.00,CLR,FEW,0.00,WeatherDisplay:10.37,2013-04-23 17:14:00,
2013-04-23 13:19:00,64.9,38.0,30.18,North,0,0.0,0.0,37,0.00,CLR,FEW,0.00,WeatherDisplay:10.37,2013-04-23 17:19:00,
2013-04-23 13:24:00,64.8,37.9,30.18,North,0,0.0,0.0,37,0.00,CLR,FEW,0.00,WeatherDisplay:10.37,2013-04-23 17:24:00,
2013-04-23 13:29:00,65.1,38.9,30.18,North,0,0.0,0.0,38,0.00,CLR,FEW,0.00,WeatherDisplay:10.37,2013-04-23 17:29:00,
2013-04-23 13:34:00,65.3,38.3,30.18,North,0,0.0,0.0,37,0.00,CLR,FEW,0.00,WeatherDisplay:10.37,2013-04-23 17:34:00,
2013-04-23 13:39:00,65.8,38.8,30.18,North,0,0.0,0.0,37,0.00,CLR,FEW,0.00,WeatherDisplay:10.37,2013-04-23 17:39:00,
2013-04-23 13:44:00,66.4,37.9,30.18,North,0,0.0,0.0,35,0.00,CLR,FEW,0.00,WeatherDisplay:10.37,2013-04-23 17:44:00,
2013-04-23 13:49:00,66.6,38.8,30.15,North,0,0.0,0.0,36,0.00,CLR,FEW,0.00,WeatherDisplay:10.37,2013-04-23 17:49:00,
2013-04-23 13:54:00,66.4,37.9,30.15,North,0,0.0,0.0,35,0.00,CLR,FEW,0.00,WeatherDisplay:10.37,2013-04-23 17:54:00,
2013-04-23 13:59:00,66.2,37.7,30.15,North,0,0.0,0.0,35,0.00,CLR,FEW,0.00,WeatherDisplay:10.37,2013-04-23 17:59:00,
2013-04-23 14:05:00,66.9,37.6,30.15,North,0,0.0,0.0,34,0.00,CLR,FEW,0.00,WeatherDisplay:10.37,2013-04-23 18:05:00,
2013-04-23 14:10:00,66.9,38.4,30.15,North,0,0.0,0.0,35,0.00,CLR,FEW,0.00,WeatherDisplay:10.37,2013-04-23 18:10:00,
2013-04-23 14:16:00,66.6,38.0,30.15,North,0,0.0,0.0,35,0.00,CLR,FEW,0.00,WeatherDisplay:10.37,2013-04-23 18:16:00,
2013-04-23 14:21:00,67.1,38.5,30.15,North,0,0.0,0.0,35,0.00,CLR,FEW,0.00,WeatherDisplay:10.37,2013-04-23 18:21:00,
2013-04-23 14:26:00,67.3,38.7,30.15,North,0,0.0,0.0,35,0.00,CLR,FEW,0.00,WeatherDisplay:10.37,2013-04-23 18:26:00,
2013-04-23 14:31:00,67.3,38.7,30.15,North,0,0.0,0.0,35,0.00,CLR,FEW,0.00,WeatherDisplay:10.37,2013-04-23 18:31:00,
2013-04-23 14:36:00,67.3,37.9,30.15,North,0,0.0,0.0,34,0.00,CLR,FEW,0.00,WeatherDisplay:10.37,2013-04-23 18:36:00,
2013-04-23 14:41:00,67.3,37.9,30.15,North,0,0.0,0.0,34,0.00,CLR,FEW,0.00,WeatherDisplay:10.37,2013-04-23 18:41:00,
2013-04-23 14:46:00,66.7,38.2,30.15,North,0,0.0,0.0,35,0.00,CLR,FEW,0.00,WeatherDisplay:10.37,2013-04-23 18:46:00,
2013-04-23 14:51:00,66.4,38.6,30.15,North,0,0.0,0.0,36,0.00,CLR,FEW,0.00,WeatherDisplay:10.37,2013-04-23 18:51:00,
2013-04-23 14:56:00,65.8,38.1,30.15,North,0,0.0,0.0,36,0.00,CLR,FEW,0.00,WeatherDisplay:10.37,2013-04-23 18:56:00,
2013-04-23 15:01:00,65.7,39.3,30.15,North,0,0.0,0.0,38,0.00,CLR,FEW,0.00,WeatherDisplay:10.37,2013-04-23 19:01:00,
2013-04-23 15:06:00,65.5,39.2,30.15,North,0,0.0,0.0,38,0.00,CLR,FEW,0.00,WeatherDisplay:10.37,2013-04-23 19:06:00,
2013-04-23 15:11:00,65.5,39.2,30.15,North,0,0.0,0.0,38,0.00,CLR,FEW,0.00,WeatherDisplay:10.37,2013-04-23 19:11:00,
2013-04-23 15:16:00,65.8,39.5,30.15,North,0,0.0,0.0,38,0.00,CLR,FEW,0.00,WeatherDisplay:10.37,2013-04-23 19:16:00,
2013-04-23 15:21:00,65.7,40.7,30.15,North,0,0.0,0.0,40,0.00,CLR,FEW,0.00,WeatherDisplay:10.37,2013-04-23 19:21:00,
2013-04-23 15:26:00,64.9,41.3,30.15,North,0,0.0,0.0,42,0.00,CLR,FEW,0.00,WeatherDisplay:10.37,2013-04-23 19:26:00,
2013-04-23 15:31:00,64.4,41.4,30.15,North,0,0.0,0.0,43,0.00,CLR,FEW,0.00,WeatherDisplay:10.37,2013-04-23 19:31:00,
2013-04-23 15:36:00,64.4,41.4,30.15,North,0,0.0,0.0,43,0.00,CLR,FEW,0.00,WeatherDisplay:10.37,2013-04-23 19:36:00,
2013-04-23 15:41:00,64.4,42.0,30.15,North,0,0.0,0.0,44,0.00,CLR,FEW,0.00,WeatherDisplay:10.37,2013-04-23 19:41:00,
2013-04-23 15:46:00,64.2,41.8,30.15,North,0,0.0,0.0,44,0.00,CLR,FEW,0.00,WeatherDisplay:10.37,2013-04-23 19:46:00,
2013-04-23 15:51:00,63.9,41.5,30.15,North,0,0.0,0.0,44,0.00,CLR,FEW,0.00,WeatherDisplay:10.37,2013-04-23 19:51:00,
2013-04-23 15:56:00,63.9,41.5,30.15,North,0,0.0,0.0,44,0.00,CLR,FEW,0.00,WeatherDisplay:10.37,2013-04-23 19:56:00,
2013-04-23 16:01:00,64.6,42.7,30.12,North,0,0.0,0.0,45,0.00,CLR,FEW,0.00,WeatherDisplay:10.37,2013-04-23 20:01:00,
2013-04-23 16:06:00,65.1,41.4,30.12,North,0,0.0,0.0,42,0.00,CLR,FEW,0.00,WeatherDisplay:10.37,2013-04-23 20:06:00,
2013-04-23 16:11:00,65.5,41.1,30.12,North,0,0.0,0.0,41,0.00,CLR,FEW,0.00,WeatherDisplay:10.37,2013-04-23 20:11:00,
2013-04-23 16:16:00,65.7,41.3,30.15,North,0,0.0,0.0,41,0.00,CLR,FEW,0.00,WeatherDisplay:10.37,2013-04-23 20:16:00,
2013-04-23 16:21:00,65.5,39.2,30.15,North,0,0.0,0.0,38,0.00,CLR,FEW,0.00,WeatherDisplay:10.37,2013-04-23 20:21:00,
2013-04-23 16:26:00,65.3,39.0,30.15,North,0,0.0,0.0,38,0.00,CLR,FEW,0.00,WeatherDisplay:10.37,2013-04-23 20:26:00,
2013-04-23 16:31:00,64.2,39.4,30.15,North,0,0.0,0.0,40,0.00,CLR,FEW,0.00,WeatherDisplay:10.37,2013-04-23 20:31:00,
2013-04-23 16:36:00,63.7,40.8,30.15,North,0,0.0,0.0,43,0.00,CLR,FEW,0.00,WeatherDisplay:10.37,2013-04-23 20:36:00,
2013-04-23 16:41:00,63.9,40.3,30.15,North,0,0.0,0.0,42,0.00,CLR,FEW,0.00,WeatherDisplay:10.37,2013-04-23 20:41:00,
2013-04-23 16:46:00,63.7,40.1,30.12,North,0,0.0,0.0,42,0.00,CLR,FEW,0.00,WeatherDisplay:10.37,2013-04-23 20:46:00,
2013-04-23 16:51:00,63.7,40.8,30.12,North,0,0.0,0.0,43,0.00,CLR,FEW,0.00,WeatherDisplay:10.37,2013-04-23 20:51:00,
2013-04-23 16:56:00,63.7,40.1,30.12,North,0,0.0,0.0,42,0.00,CLR,FEW,0.00,WeatherDisplay:10.37,2013-04-23 20:56:00,
2013-04-23 17:01:00,63.9,40.9,30.12,North,0,0.0,0.0,43,0.00,CLR,FEW,0.00,WeatherDisplay:10.37,2013-04-23 21:01:00,
2013-04-23 17:06:00,64.4,41.4,30.12,North,0,0.0,0.0,43,0.00,CLR,FEW,0.00,WeatherDisplay:10.37,2013-04-23 21:06:00,
2013-04-23 17:11:00,64.4,40.2,30.12,North,0,0.0,0.0,41,0.00,CLR,FEW,0.00,WeatherDisplay:10.37,2013-04-23 21:11:00,
2013-04-23 17:16:00,64.8,40.5,30.12,North,0,0.0,0.0,41,0.00,CLR,FEW,0.00,WeatherDisplay:10.37,2013-04-23 21:16:00,
2013-04-23 17:21:00,64.8,40.5,30.12,North,0,0.0,0.0,41,0.00,CLR,FEW,0.00,WeatherDisplay:10.37,2013-04-23 21:21:00,
2013-04-23 17:26:00,64.8,40.5,30.12,North,0,0.0,0.0,41,0.00,CLR,FEW,0.00,WeatherDisplay:10.37,2013-04-23 21:26:00,
2013-04-23 17:31:00,64.6,41.0,30.12,North,0,0.0,0.0,42,0.00,CLR,FEW,0.00,WeatherDisplay:10.37,2013-04-23 21:31:00,
2013-04-23 17:36:00,64.4,40.8,30.12,North,0,0.0,0.0,42,0.00,CLR,FEW,0.00,WeatherDisplay:10.37,2013-04-23 21:36:00,
2013-04-23 17:41:00,64.6,40.3,30.12,North,0,0.0,0.0,41,0.00,CLR,FEW,0.00,WeatherDisplay:10.37,2013-04-23 21:41:00,
2013-04-23 17:46:00,64.4,40.2,30.12,North,0,0.0,0.0,41,0.00,CLR,FEW,0.00,WeatherDisplay:10.37,2013-04-23 21:46:00,
2013-04-23 17:51:00,64.4,40.2,30.12,North,0,0.0,0.0,41,0.00,CLR,FEW,0.00,WeatherDisplay:10.37,2013-04-23 21:51:00,
2013-04-23 17:56:00,64.4,40.2,30.12,North,0,0.0,0.0,41,0.00,CLR,FEW,0.00,WeatherDisplay:10.37,2013-04-23 21:56:00,
2013-04-23 18:01:00,64.0,41.1,30.12,North,0,0.0,0.0,43,0.00,CLR,FEW,0.00,WeatherDisplay:10.37,2013-04-23 22:01:00,
2013-04-23 18:06:00,63.9,40.9,30.12,North,0,0.0,0.0,43,0.00,CLR,FEW,0.00,WeatherDisplay:10.37,2013-04-23 22:06:00,
2013-04-23 18:11:00,63.3,41.0,30.12,North,0,0.0,0.0,44,0.00,CLR,FEW,0.00,WeatherDisplay:10.37,2013-04-23 22:11:00,
2013-04-23 18:16:00,63.0,40.7,30.12,North,0,0.0,0.0,44,0.00,CLR,FEW,0.00,WeatherDisplay:10.37,2013-04-23 22:16:00,
2013-04-23 18:21:00,63.0,41.3,30.12,North,0,0.0,0.0,45,0.00,CLR,FEW,0.00,WeatherDisplay:10.37,2013-04-23 22:21:00,
2013-04-23 18:26:00,63.0,41.3,30.12,North,0,0.0,0.0,45,0.00,CLR,FEW,0.00,WeatherDisplay:10.37,2013-04-23 22:26:00,
2013-04-23 18:31:00,62.8,41.1,30.12,North,0,0.0,0.0,45,0.00,CLR,FEW,0.00,WeatherDisplay:10.37,2013-04-23 22:31:00,
2013-04-23 18:36:00,62.6,40.9,30.12,North,0,0.0,0.0,45,0.00,CLR,FEW,0.00,WeatherDisplay:10.37,2013-04-23 22:36:00,
2013-04-23 18:41:00,62.4,41.4,30.12,North,0,0.0,0.0,46,0.00,CLR,FEW,0.00,WeatherDisplay:10.37,2013-04-23 22:41:00,
2013-04-23 18:46:00,62.2,41.2,30.12,North,0,0.0,0.0,46,0.00,CLR,FEW,0.00,WeatherDisplay:10.37,2013-04-23 22:46:00,
2013-04-23 18:51:00,62.2,41.7,30.12,North,0,0.0,0.0,47,0.00,CLR,FEW,0.00,WeatherDisplay:10.37,2013-04-23 22:51:00,
2013-04-23 18:56:00,62.1,41.6,30.12,North,0,0.0,0.0,47,0.00,CLR,FEW,0.00,WeatherDisplay:10.37,2013-04-23 22:56:00,
2013-04-23 19:01:00,62.1,41.6,30.12,North,0,0.0,0.0,47,0.00,CLR,FEW,0.00,WeatherDisplay:10.37,2013-04-23 23:01:00,
2013-04-23 19:06:00,62.1,41.6,30.12,North,0,0.0,0.0,47,0.00,CLR,FEW,0.00,WeatherDisplay:10.37,2013-04-23 23:06:00,
2013-04-23 19:11:00,62.1,41.6,30.12,North,0,0.0,0.0,47,0.00,CLR,FEW,0.00,WeatherDisplay:10.37,2013-04-23 23:11:00,
2013-04-23 19:16:00,61.9,41.4,30.12,North,0,0.0,0.0,47,0.00,CLR,FEW,0.00,WeatherDisplay:10.37,2013-04-23 23:16:00,
2013-04-23 19:21:00,61.7,41.3,30.12,North,0,0.0,0.0,47,0.00,CLR,FEW,0.00,WeatherDisplay:10.37,2013-04-23 23:21:00,
2013-04-23 19:26:00,61.7,41.3,30.12,North,0,0.0,0.0,47,0.00,CLR,FEW,0.00,WeatherDisplay:10.37,2013-04-23 23:26:00,
2013-04-23 19:31:00,61.5,41.6,30.15,North,0,0.0,0.0,48,0.00,CLR,FEW,0.00,WeatherDisplay:10.37,2013-04-23 23:31:00,
2013-04-23 19:36:00,61.3,41.5,30.15,North,0,0.0,0.0,48,0.00,CLR,FEW,0.00,WeatherDisplay:10.37,2013-04-23 23:36:00,
2013-04-23 19:41:00,61.2,41.3,30.15,North,0,0.0,0.0,48,0.00,CLR,FEW,0.00,WeatherDisplay:10.37,2013-04-23 23:41:00,
2013-04-23 19:46:00,61.0,41.1,30.15,North,0,0.0,0.0,48,0.00,CLR,FEW,0.00,WeatherDisplay:10.37,2013-04-23 23:46:00,
2013-04-23 19:51:00,60.8,41.0,30.15,North,0,0.0,0.0,48,0.00,CLR,FEW,0.00,WeatherDisplay:10.37,2013-04-23 23:51:00,
2013-04-23 19:56:00,60.6,41.3,30.15,North,0,0.0,0.0,49,0.00,CLR,FEW,0.00,WeatherDisplay:10.37,2013-04-23 23:56:00,
2013-04-23 20:01:00,60.6,41.9,30.15,North,0,0.0,0.0,50,0.00,CLR,FEW,0.00,WeatherDisplay:10.37,2013-04-24 00:01:00,
2013-04-23 20:06:00,60.4,42.2,30.15,North,0,0.0,0.0,51,0.00,CLR,FEW,0.00,WeatherDisplay:10.37,2013-04-24 00:06:00,
2013-04-23 20:11:00,60.3,42.0,30.15,North,0,0.0,0.0,51,0.00,CLR,FEW,0.00,WeatherDisplay:10.37,2013-04-24 00:11:00,
2013-04-23 20:16:00,60.3,42.0,30.12,North,0,0.0,0.0,51,0.00,CLR,FEW,0.00,WeatherDisplay:10.37,2013-04-24 00:16:00,
2013-04-23 20:21:00,60.1,42.4,30.12,North,0,0.0,0.0,52,0.00,CLR,FEW,0.00,WeatherDisplay:10.37,2013-04-24 00:21:00,
2013-04-23 20:26:00,60.1,42.4,30.12,North,0,0.0,0.0,52,0.00,CLR,FEW,0.00,WeatherDisplay:10.37,2013-04-24 00:26:00,
2013-04-23 20:31:00,60.1,42.9,30.15,North,0,0.0,0.0,53,0.00,CLR,FEW,0.00,WeatherDisplay:10.37,2013-04-24 00:31:00,
2013-04-23 20:36:00,60.1,43.4,30.15,North,0,0.0,0.0,54,0.00,CLR,FEW,0.00,WeatherDisplay:10.37,2013-04-24 00:36:00,
2013-04-23 20:41:00,60.1,43.4,30.15,North,0,0.0,0.0,54,0.00,CLR,FEW,0.00,WeatherDisplay:10.37,2013-04-24 00:41:00,
2013-04-23 20:46:00,60.1,43.4,30.15,North,0,0.0,0.0,54,0.00,CLR,FEW,0.00,WeatherDisplay:10.37,2013-04-24 00:46:00,
2013-04-23 20:51:00,60.3,42.6,30.15,North,0,0.0,0.0,52,0.00,CLR,FEW,0.00,WeatherDisplay:10.37,2013-04-24 00:51:00,
2013-04-23 20:56:00,60.4,42.7,30.15,North,0,0.0,0.0,52,0.00,CLR,FEW,0.00,WeatherDisplay:10.37,2013-04-24 00:56:00,
2013-04-23 21:01:00,60.4,42.7,30.15,North,0,0.0,0.0,52,0.00,CLR,FEW,0.00,WeatherDisplay:10.37,2013-04-24 01:01:00,
2013-04-23 21:06:00,60.4,42.2,30.15,North,0,0.0,0.0,51,0.00,CLR,FEW,0.00,WeatherDisplay:10.37,2013-04-24 01:06:00,
2013-04-23 21:11:00,60.3,42.0,30.15,North,0,0.0,0.0,51,0.00,CLR,FEW,0.00,WeatherDisplay:10.37,2013-04-24 01:11:00,
2013-04-23 21:16:00,60.3,42.0,30.15,North,0,0.0,0.0,51,0.00,CLR,FEW,0.00,WeatherDisplay:10.37,2013-04-24 01:16:00,
2013-04-23 21:21:00,60.1,41.9,30.15,North,0,0.0,0.0,51,0.00,CLR,FEW,0.00,WeatherDisplay:10.37,2013-04-24 01:21:00,
2013-04-23 21:26:00,59.9,42.2,30.15,North,0,0.0,0.0,52,0.00,CLR,FEW,0.00,WeatherDisplay:10.37,2013-04-24 01:26:00,
2013-04-23 21:31:00,60.1,42.9,30.15,North,0,0.0,0.0,53,0.00,CLR,FEW,0.00,WeatherDisplay:10.37,2013-04-24 01:31:00,
2013-04-23 21:36:00,60.1,43.9,30.15,North,0,0.0,0.0,55,0.00,CLR,FEW,0.00,WeatherDisplay:10.37,2013-04-24 01:36:00,
2013-04-23 21:41:00,60.1,44.8,30.15,North,0,0.0,0.0,57,0.00,CLR,FEW,0.00,WeatherDisplay:10.37,2013-04-24 01:41:00,
2013-04-23 21:46:00,60.1,44.8,30.15,North,0,0.0,0.0,57,0.00,CLR,FEW,0.00,WeatherDisplay:10.37,2013-04-24 01:46:00,
2013-04-23 21:51:00,60.1,44.8,30.15,North,0,0.0,0.0,57,0.00,CLR,FEW,0.00,WeatherDisplay:10.37,2013-04-24 01:51:00,
2013-04-23 21:56:00,60.1,44.8,30.15,North,0,0.0,0.0,57,0.00,CLR,FEW,0.00,WeatherDisplay:10.37,2013-04-24 01:56:00,
2013-04-23 22:01:00,59.9,44.6,30.18,North,0,0.0,0.0,57,0.00,CLR,FEW,0.00,WeatherDisplay:10.37,2013-04-24 02:01:00,
2013-04-23 22:06:00,59.9,45.1,30.18,North,0,0.0,0.0,58,0.00,CLR,FEW,0.00,WeatherDisplay:10.37,2013-04-24 02:06:00,
2013-04-23 22:12:00,59.9,45.5,30.18,North,0,0.0,0.0,59,0.00,CLR,FEW,0.00,WeatherDisplay:10.37,2013-04-24 02:12:00,
2013-04-23 22:17:00,59.9,46.0,30.18,North,0,0.0,0.0,60,0.00,CLR,FEW,0.00,WeatherDisplay:10.37,2013-04-24 02:17:00,
2013-04-23 22:23:00,60.1,46.1,30.18,North,0,0.0,0.0,60,0.00,CLR,FEW,0.00,WeatherDisplay:10.37,2013-04-24 02:23:00,
2013-04-23 22:28:00,60.1,46.1,30.18,North,0,0.0,0.0,60,0.00,CLR,FEW,0.00,WeatherDisplay:10.37,2013-04-24 02:28:00,
2013-04-23 22:33:00,60.1,46.6,30.18,North,0,0.0,0.0,61,0.00,CLR,FEW,0.00,WeatherDisplay:10.37,2013-04-24 02:33:00,
2013-04-23 22:38:00,60.1,46.6,30.18,North,0,0.0,0.0,61,0.00,CLR,FEW,0.00,WeatherDisplay:10.37,2013-04-24 02:38:00,
2013-04-23 22:43:00,60.3,46.8,30.18,North,0,0.0,0.0,61,0.00,CLR,FEW,0.00,WeatherDisplay:10.37,2013-04-24 02:43:00,
2013-04-23 22:48:00,60.3,46.8,30.18,North,0,0.0,0.0,61,0.00,CLR,FEW,0.00,WeatherDisplay:10.37,2013-04-24 02:48:00,
2013-04-23 22:53:00,60.3,46.8,30.18,North,0,0.0,0.0,61,0.00,CLR,FEW,0.00,WeatherDisplay:10.37,2013-04-24 02:53:00,
2013-04-23 22:58:00,60.3,46.3,30.18,North,0,0.0,0.0,60,0.00,CLR,FEW,0.00,WeatherDisplay:10.37,2013-04-24 02:58:00,
2013-04-23 23:03:00,60.4,46.0,30.18,North,0,0.0,0.0,59,0.00,CLR,FEW,0.00,WeatherDisplay:10.37,2013-04-24 03:03:00,
2013-04-23 23:10:00,60.4,46.0,30.18,North,0,0.0,0.0,59,0.00,CLR,FEW,0.00,WeatherDisplay:10.37,2013-04-24 03:10:00,
2013-04-23 23:15:00,60.4,46.0,30.15,North,0,0.0,0.0,59,0.00,CLR,FEW,0.00,WeatherDisplay:10.37,2013-04-24 03:15:00,
2013-04-23 23:20:00,60.3,45.9,30.15,North,0,0.0,0.0,59,0.00,CLR,FEW,0.00,WeatherDisplay:10.37,2013-04-24 03:20:00,
2013-04-23 23:25:00,60.3,46.3,30.15,North,0,0.0,0.0,60,0.00,CLR,FEW,0.00,WeatherDisplay:10.37,2013-04-24 03:25:00,
2013-04-23 23:30:00,60.3,46.3,30.15,North,0,0.0,0.0,60,0.00,CLR,FEW,0.00,WeatherDisplay:10.37,2013-04-24 03:30:00,
2013-04-23 23:35:00,60.3,46.3,30.15,North,0,0.0,0.0,60,0.00,CLR,FEW,0.00,WeatherDisplay:10.37,2013-04-24 03:35:00,
2013-04-23 23:40:00,60.1,46.1,30.15,North,0,0.0,0.0,60,0.00,CLR,FEW,0.00,WeatherDisplay:10.37,2013-04-24 03:40:00,
2013-04-23 23:46:00,60.1,46.1,30.15,North,0,0.0,0.0,60,0.00,CLR,FEW,0.00,WeatherDisplay:10.37,2013-04-24 03:46:00,
2013-04-23 23:51:00,59.9,46.0,30.15,North,0,0.0,0.0,60,0.00,CLR,FEW,0.00,WeatherDisplay:10.37,2013-04-24 03:51:00,
2013-04-23 23:56:00,59.9,46.4,30.15,North,0,0.0,0.0,61,0.00,CLR,FEW,0.00,WeatherDisplay:10.37,2013-04-24 03:56:00,